[[{"header":{"parameterUnit":"m.s-1","parameterCategory":1,"la1":30.2991,"la2":30.254,"lo1":-89.0895,"lo2":-89.0444,"dy":0.0017,"dx":0.0017,"nx":28,"ny":28,"refTime":"2025-06-08T03:00:00:Z","depth":0,"parameterNumber":2,"parameterNumberName":"U-component_of_WINDS"},"data":[0,0,0,0,0,0,0,0,0,0,0,0,0,0,0,0,0,0,0,0,0,0,0,0,0,0,0,0,0,0,0,0,0,0,0,0,0,0,0,0,0,0,0,0,0,0,0,0,0,0,0,0,0,0,0,0,0,0,4.8082,4.8084,0,4.8256,4.8258,4.826,4.8209,4.8205,4.8201,4.8198,4.8379,4.8387,4.8395,0,0,0,0,0,0,0,0,0,0,0,0,0,4.7705,4.7713,4.8082,4.8084,4.8086,4.8256,4.8258,4.8261,4.8209,4.8205,4.82,4.8196,4.8376,4.8386,4.8395,0,0,0,0,0,0,0,0,0,0,0,0,0,4.7873,4.7715,4.8082,4.8081,4.8083,4.8255,4.8258,4.8261,4.821,4.8205,4.8199,4.8194,4.8373,4.8385,4.8397,4.8581,0,0,4.8434,4.844,0,0,0,0,0,0,0,0,4.7864,4.7887,4.8079,4.8081,4.8084,4.8205,4.8192,4.8369,4.8211,4.8162,4.8198,4.8191,4.8325,4.8341,4.8386,4.859,4.8598,4.8435,4.8443,4.8448,4.8452,0,0,0,0,0,0,0,4.7852,4.7879,4.8151,4.8082,4.8085,4.8072,4.809,4.8225,4.8272,4.8166,4.8162,4.8184,4.8326,4.8374,4.839,4.86,4.8435,4.8446,4.8454,4.8458,4.8961,4.8966,0,0,0,0,0,0,4.7839,4.787,4.8145,4.8156,4.7958,4.8083,4.8103,4.8172,4.827,4.828,4.8188,4.8181,4.8356,4.8376,4.8396,4.8616,4.8448,4.846,4.8467,4.8955,4.8962,4.8968,0,0,0,0,0,0,4.7831,4.7864,4.8138,4.8012,4.8046,4.8096,4.8173,4.8178,4.8226,4.8287,4.8295,4.8229,4.8352,4.8379,4.8535,4.8621,4.8465,4.8476,4.8948,4.8957,4.8965,4.9058,0,0,0,0,0,0,4.782,4.7861,4.7932,4.8014,4.8053,4.8274,4.8178,4.8185,4.8247,4.8239,4.8328,4.8337,4.835,4.8517,4.8547,4.8635,4.8486,4.894,4.8952,4.8962,4.9048,4.9069,4.9088,0,0,0,0,0,4.7807,4.7953,4.7936,4.797,4.8143,4.828,4.8302,4.8313,4.8255,4.8326,4.8364,4.8334,4.8607,4.8533,4.8567,4.866,4.8935,4.8948,4.8961,4.9039,4.9065,4.9087,0,0,0,0,0,0,4.7881,4.7964,4.7946,4.8123,4.8194,4.827,4.8361,4.8341,4.8432,4.842,4.8431,4.8451,4.861,4.8651,4.8567,4.8842,4.8762,4.8783,4.8809,4.8835,4.8855,4.8841,4.8496,0,0,0,0,0,4.7918,4.8022,4.8089,4.8238,4.8275,4.8312,4.8372,4.8374,4.8449,4.8479,4.8529,4.8604,4.8706,4.8773,4.8871,4.9054,4.9071,4.9134,4.9155,4.9171,4.9188,4.9285,4.9313,4.9012,4.9012,4.9012,0,0,4.7995,4.8053,4.8118,4.8254,4.831,4.8417,4.8338,4.8455,4.8534,4.8497,4.8646,4.8686,4.877,4.8939,4.9016,4.8978,4.9275,4.9188,4.92,4.9209,4.9301,4.933,4.9355,4.9022,4.902,4.9018,0,0,4.819,4.8245,4.8374,4.8431,4.8515,4.8539,4.857,4.8649,4.8673,4.8823,4.8796,4.8891,4.9067,4.9127,4.918,4.9395,4.937,4.9427,4.9531,4.9625,4.9649,4.967,4.9743,4.977,4.9444,4.9444,4.9444,0,4.8275,4.8435,4.8443,4.8561,4.8621,4.8591,4.8721,4.8776,4.8889,4.8931,4.8886,4.9104,4.9159,4.934,4.9392,4.9437,4.9471,4.9416,4.9644,4.9666,4.9685,4.9756,4.9784,4.945,4.945,4.9449,4.9449,0,4.8534,4.8645,4.8739,4.8846,4.8917,4.9041,4.9067,4.9137,4.9133,4.916,4.9312,4.9376,4.9484,4.9528,4.9526,4.9709,4.9681,4.9641,4.9561,4.972,4.9786,4.9813,4.9459,4.9457,4.9455,4.9454,0,0,4.8781,4.8889,4.8923,4.897,4.906,4.9146,4.9268,4.9373,4.9431,4.951,4.9611,4.976,4.9722,4.9782,4.9787,4.987,5.0031,4.9818,4.982,4.9853,5.0233,5.0261,5.0292,5.0016,5.0021,5.0025,5.0225,0,4.8981,4.9194,4.9203,4.9397,4.9498,4.947,4.9576,4.9642,4.9671,4.9761,4.9793,4.9897,4.9841,4.9877,4.9957,4.9995,5.0108,4.9981,5.0109,5.0113,5.0086,5.0328,5.0359,5.0544,5.0251,5.0256,5.0259,0,4.9243,4.9327,4.953,4.9603,4.9646,4.9741,4.9835,4.9922,4.9997,5.0012,5.0078,5.007,5.0193,5.0109,5.0278,5.0192,5.0245,5.0271,5.0278,5.0289,5.0194,5.0342,5.0604,5.0631,5.0301,5.0297,5.0294,0,4.9399,4.9564,4.9705,4.9747,4.9836,4.9903,4.9943,5.0012,5.0073,5.0157,5.0196,5.0294,5.0347,5.0422,5.0439,5.0377,5.0608,5.0526,5.0622,5.0622,5.0671,5.0667,5.0942,5.0709,5.0709,5.0708,5.0708,0,4.962,4.9745,4.9776,4.9863,5.0001,5.0011,5.0148,5.0183,5.0244,5.0337,5.032,5.0408,5.0427,5.0518,5.0533,5.0669,5.0694,5.0709,5.0711,5.0709,5.0707,5.0742,5.0729,5.0716,5.0714,5.0713,5.0711,0,4.9817,4.9844,4.9995,5.0067,5.0087,5.0186,5.0246,5.033,5.0355,5.0473,5.0501,5.0543,5.0649,5.0674,5.0802,5.0811,5.0971,5.0962,5.0946,5.0944,5.1038,5.1027,5.1343,5.1383,5.1127,5.1129,5.1131,0,4.9956,5.005,5.0131,5.0191,5.0234,5.0332,5.0393,5.0407,5.0471,5.0561,5.0633,5.0737,5.082,5.0991,5.1033,5.1129,5.1121,5.1225,5.1135,5.1129,5.1119,5.1112,5.112,5.1241,5.1244,5.1246,5.1248,0,5.0197,5.0205,5.0294,5.0387,5.046,5.0535,5.0606,5.0656,5.0679,5.0752,5.086,5.0924,5.1053,5.1155,5.1252,5.1293,5.1274,5.1276,5.1302,5.13,5.1285,5.1292,5.0989,5.1268,5.1266,5.1265,5.1264,5.1263,5.0367,5.0449,5.0517,5.0616,5.067,5.0736,5.0817,5.0852,5.0941,5.1045,5.1048,5.1164,5.1234,5.1361,5.1408,5.1499,5.1467,5.1506,5.1516,5.1525,5.1531,5.1273,5.1517,5.1516,5.1516,5.1515,5.1515,0,5.0605,5.0647,5.0738,5.0837,5.0914,5.0889,5.0965,5.1031,5.1133,5.1199,5.1281,5.1403,5.1502,5.155,5.1648,5.1711,5.1704,5.1736,5.173,5.1739,5.1556,5.1522,5.1739,5.1739,5.1739,5.1739,5.1739,5.1739,5.0738,5.0874,5.0889,5.105,5.1092,5.1204,5.125,5.131,5.1362,5.1498,5.158,5.161,5.1669,5.177,5.1859,5.187,5.1906,5.1941,5.1948,5.1776,5.1753,5.1731,5.1698,5.1949,5.195,5.2123,5.2125,5.2126]},{"header":{"parameterUnit":"m.s-1","parameterCategory":1,"la1":30.2991,"la2":30.254,"lo1":-89.0895,"lo2":-89.0444,"dy":0.0017,"dx":0.0017,"nx":28,"ny":28,"refTime":"2025-06-08T03:00:00:Z","depth":0,"parameterNumber":3,"parameterNumberName":"V-component_of_WINDS"},"data":[0,0,0,0,0,0,0,0,0,0,0,0,0,0,0,0,0,0,0,0,0,0,0,0,0,0,0,0,0,0,0,0,0,0,0,0,0,0,0,0,0,0,0,0,0,0,0,0,0,0,0,0,0,0,0,0,0,0,1.5427,1.5427,0,1.5443,1.5444,1.5444,1.5398,1.5397,1.5395,1.5394,1.5411,1.5413,1.5415,0,0,0,0,0,0,0,0,0,0,0,0,0,1.5357,1.5358,1.5427,1.5427,1.5428,1.5443,1.5444,1.5444,1.5399,1.5397,1.5395,1.5393,1.5411,1.5413,1.5415,0,0,0,0,0,0,0,0,0,0,0,0,0,1.5382,1.5359,1.5427,1.5407,1.5405,1.5443,1.5444,1.5444,1.5399,1.5397,1.5395,1.5393,1.541,1.5413,1.5415,1.5474,0,0,1.5423,1.5424,0,0,0,0,0,0,0,0,1.538,1.5384,1.541,1.5408,1.5407,1.5417,1.5425,1.5454,1.5399,1.5401,1.5394,1.5392,1.5415,1.5417,1.5425,1.5475,1.5475,1.5424,1.5425,1.5426,1.5427,0,0,0,0,0,0,0,1.5379,1.5383,1.5434,1.541,1.5408,1.5397,1.5398,1.543,1.542,1.5401,1.5398,1.54,1.5414,1.5422,1.5425,1.5476,1.5424,1.5426,1.5427,1.5429,1.5573,1.5575,0,0,0,0,0,0,1.5379,1.5382,1.5433,1.5434,1.5388,1.54,1.5401,1.5416,1.5419,1.5418,1.5402,1.5398,1.5419,1.5422,1.5425,1.5493,1.5426,1.5429,1.543,1.5571,1.5574,1.5576,0,0,0,0,0,0,1.5378,1.5384,1.5432,1.5407,1.5412,1.5403,1.542,1.5417,1.5426,1.542,1.5418,1.5413,1.5417,1.5421,1.5462,1.5493,1.543,1.5432,1.5568,1.5572,1.5575,1.5631,0,0,0,0,0,0,1.5376,1.5384,1.5407,1.5408,1.5414,1.5469,1.5422,1.5419,1.543,1.5425,1.543,1.5428,1.5416,1.5458,1.5464,1.5496,1.5434,1.5565,1.557,1.5574,1.5626,1.5636,1.5644,0,0,0,0,0,1.5374,1.5422,1.5408,1.5414,1.5442,1.5471,1.5474,1.5459,1.5433,1.5455,1.5451,1.5428,1.5489,1.5463,1.5469,1.5502,1.5563,1.5569,1.5573,1.5622,1.5634,1.5644,0,0,0,0,0,0,1.5425,1.5422,1.5406,1.5456,1.5464,1.5463,1.5491,1.5472,1.5488,1.5482,1.5462,1.5464,1.5508,1.5509,1.548,1.5558,1.5522,1.5528,1.5556,1.5567,1.5576,1.5575,1.5437,0,0,0,0,0,1.5442,1.5466,1.5462,1.5507,1.5511,1.5501,1.5513,1.55,1.5507,1.5511,1.551,1.5518,1.5539,1.5553,1.5572,1.5626,1.5626,1.5651,1.566,1.5667,1.5674,1.5701,1.5713,1.5593,1.5593,1.5593,0,0,1.5478,1.5479,1.5496,1.5517,1.5522,1.5547,1.5504,1.5533,1.5551,1.5515,1.5553,1.5553,1.556,1.5607,1.5628,1.561,1.5706,1.5674,1.568,1.5682,1.5708,1.5719,1.5729,1.5596,1.5596,1.5595,0,0,1.5556,1.556,1.5597,1.5602,1.5609,1.5601,1.561,1.5612,1.561,1.5647,1.5621,1.5642,1.5679,1.5685,1.5693,1.5771,1.575,1.5778,1.5825,1.5852,1.5861,1.587,1.5897,1.5907,1.5784,1.5784,1.5784,0,1.56,1.5637,1.5618,1.5648,1.5658,1.5626,1.5663,1.5669,1.5682,1.569,1.5669,1.5713,1.5716,1.5764,1.5783,1.579,1.5799,1.5778,1.5861,1.5869,1.5877,1.5903,1.5914,1.5788,1.5787,1.5787,1.5786,0,1.5689,1.5715,1.5744,1.5757,1.577,1.5804,1.579,1.5805,1.5791,1.5786,1.5824,1.5826,1.5844,1.5854,1.5841,1.59,1.5888,1.5865,1.5827,1.5892,1.5916,1.5926,1.5792,1.5791,1.579,1.5789,0,0,1.5802,1.5803,1.5814,1.5818,1.5823,1.5843,1.5874,1.5892,1.5905,1.5915,1.5941,1.5971,1.5949,1.5958,1.5945,1.5969,1.603,1.5942,1.5942,1.5958,1.6095,1.6113,1.6125,1.6016,1.6018,1.602,1.6094,0,1.5878,1.5932,1.5916,1.597,1.5993,1.5962,1.599,1.5996,1.5991,1.601,1.6004,1.6026,1.5996,1.6001,1.6023,1.6018,1.6058,1.6013,1.604,1.6041,1.6039,1.6137,1.6157,1.6227,1.6104,1.6105,1.6106,0,1.5975,1.5988,1.6044,1.6044,1.6053,1.6078,1.6092,1.611,1.6116,1.6111,1.612,1.6102,1.6132,1.6095,1.6136,1.6106,1.6116,1.6115,1.6118,1.612,1.6078,1.6142,1.6249,1.626,1.6121,1.612,1.6119,0,1.605,1.6082,1.6119,1.6124,1.6125,1.6143,1.6145,1.6148,1.6159,1.6171,1.6178,1.6194,1.6203,1.6215,1.6201,1.6175,1.6245,1.6206,1.6241,1.6241,1.6258,1.6257,1.6368,1.6264,1.6264,1.6264,1.6263,0,1.6138,1.6173,1.6153,1.6176,1.6215,1.6196,1.6235,1.6232,1.6235,1.6257,1.6232,1.6253,1.6233,1.6252,1.6241,1.6277,1.6281,1.6278,1.6275,1.628,1.6281,1.6287,1.6281,1.6266,1.6266,1.6265,1.6265,0,1.6229,1.6217,1.6256,1.6253,1.6253,1.6282,1.6279,1.63,1.6293,1.6321,1.6326,1.6315,1.6336,1.6323,1.6345,1.6338,1.6384,1.6374,1.6383,1.638,1.6416,1.6412,1.6534,1.6549,1.6436,1.6437,1.6438,0,1.6286,1.6312,1.6312,1.6324,1.6327,1.6348,1.6358,1.634,1.6352,1.636,1.638,1.6399,1.6413,1.6448,1.6442,1.6458,1.6448,1.649,1.6451,1.6455,1.6449,1.6447,1.645,1.6498,1.6499,1.65,1.6501,0,1.6387,1.6379,1.6396,1.641,1.6423,1.6434,1.6442,1.6454,1.6435,1.645,1.6471,1.6482,1.6504,1.6523,1.6536,1.6537,1.6516,1.6514,1.6522,1.6529,1.6532,1.653,1.6404,1.6511,1.651,1.6509,1.6509,1.6508,1.6463,1.6484,1.6487,1.6506,1.651,1.6518,1.6537,1.6532,1.6549,1.6565,1.6553,1.6578,1.6581,1.6597,1.6601,1.662,1.6603,1.6616,1.6619,1.6623,1.6628,1.6529,1.6622,1.6622,1.6622,1.6621,1.6621,0,1.6562,1.6562,1.658,1.6592,1.6606,1.6585,1.6592,1.6606,1.6628,1.6633,1.6647,1.6671,1.6689,1.6684,1.6699,1.6715,1.6706,1.672,1.6719,1.6719,1.6642,1.6632,1.6727,1.6727,1.6727,1.6727,1.6727,1.6727,1.6616,1.6651,1.6644,1.6681,1.668,1.6704,1.671,1.6717,1.6721,1.6749,1.6763,1.6759,1.676,1.6775,1.6791,1.6789,1.6796,1.6813,1.6808,1.6735,1.6725,1.6715,1.6706,1.6815,1.6815,1.6883,1.6884,1.6885]}]]